Time,TemperatureF,DewpointF,PressureIn,WindDirection,WindDirectionDegrees,WindSpeedMPH,WindSpeedGustMPH,Humidity,HourlyPrecipIn,Conditions,Clouds,dailyrainin,SoftwareType,DateUTC
2013-03-06 00:00:00,38.5,28.4,29.90,SSE,153,0.7,6.4,67,0.00,,,0.00,WX3IN1Plus v1.30,2013-03-06 05:00:00,
2013-03-06 00:05:00,38.5,28.4,29.90,NNE,33,0.0,5.0,67,0.00,,,0.00,WX3IN1Plus v1.30,2013-03-06 05:05:00,
2013-03-06 00:10:00,38.4,28.4,29.90,SE,127,2.8,8.5,67,0.00,,,0.00,WX3IN1Plus v1.30,2013-03-06 05:10:00,
2013-03-06 00:15:00,38.5,28.4,29.90,East,92,1.8,6.0,67,0.00,,,0.00,WX3IN1Plus v1.30,2013-03-06 05:15:00,
2013-03-06 00:20:00,38.4,28.4,29.90,ENE,77,0.0,4.9,67,0.00,,,0.00,WX3IN1Plus v1.30,2013-03-06 05:20:00,
2013-03-06 00:25:00,38.4,28.4,29.90,SSE,164,2.9,4.6,67,0.00,,,0.00,WX3IN1Plus v1.30,2013-03-06 05:25:00,
2013-03-06 00:30:00,38.4,28.4,29.89,SE,127,1.9,6.0,67,0.00,,,0.00,WX3IN1Plus v1.30,2013-03-06 05:30:00,
2013-03-06 00:35:00,38.3,28.4,29.89,East,90,2.2,7.7,67,0.00,,,0.00,WX3IN1Plus v1.30,2013-03-06 05:35:00,
2013-03-06 00:40:00,38.3,28.4,29.89,SSE,154,7.2,7.5,67,0.00,,,0.00,WX3IN1Plus v1.30,2013-03-06 05:40:00,
2013-03-06 00:45:00,38.3,28.4,29.89,South,188,3.7,7.5,67,0.00,,,0.00,WX3IN1Plus v1.30,2013-03-06 05:45:00,
2013-03-06 00:50:00,38.1,27.9,29.88,SSW,195,3.0,6.8,67,0.00,,,0.00,WX3IN1Plus v1.30,2013-03-06 05:50:00,
2013-03-06 00:55:00,38.2,29.0,29.88,NE,43,4.7,9.0,69,0.00,,,0.00,WX3IN1Plus v1.30,2013-03-06 05:55:00,
2013-03-06 01:00:00,37.9,29.3,29.88,SSE,160,11.3,13.0,72,0.00,,,0.00,WX3IN1Plus v1.30,2013-03-06 06:00:00,
2013-03-06 01:05:00,37.1,29.9,29.88,SE,143,5.2,11.8,75,0.00,,,0.00,WX3IN1Plus v1.30,2013-03-06 06:05:00,
2013-03-06 01:10:00,36.5,30.2,29.88,SSE,160,5.4,13.3,78,0.00,,,0.00,WX3IN1Plus v1.30,2013-03-06 06:10:00,
2013-03-06 01:15:00,35.9,30.6,29.88,SSE,151,3.3,9.0,81,0.00,,,0.00,WX3IN1Plus v1.30,2013-03-06 06:15:00,
2013-03-06 01:20:00,35.3,30.2,29.88,ESE,105,5.0,9.8,82,0.00,,,0.00,WX3IN1Plus v1.30,2013-03-06 06:20:00,
2013-03-06 01:25:00,34.9,30.6,29.87,SE,136,0.0,7.5,84,0.00,,,0.00,WX3IN1Plus v1.30,2013-03-06 06:25:00,
2013-03-06 01:30:00,34.6,30.6,29.87,SSE,147,4.2,6.2,85,0.00,,,0.00,WX3IN1Plus v1.30,2013-03-06 06:30:00,
2013-03-06 01:35:00,34.3,30.4,29.86,East,82,0.0,4.9,86,0.00,,,0.00,WX3IN1Plus v1.30,2013-03-06 06:35:00,
2013-03-06 01:40:00,34.1,30.4,29.85,East,92,0.0,4.7,87,0.00,,,0.00,WX3IN1Plus v1.30,2013-03-06 06:40:00,
2013-03-06 01:45:00,33.9,30.6,29.84,ESE,118,4.3,6.2,88,0.00,,,0.00,WX3IN1Plus v1.30,2013-03-06 06:45:00,
2013-03-06 01:50:00,33.8,30.6,29.84,ESE,109,1.0,5.9,88,0.00,,,0.00,WX3IN1Plus v1.30,2013-03-06 06:50:00,
2013-03-06 01:55:00,33.7,30.6,29.83,NE,50,0.0,3.5,89,0.00,,,0.00,WX3IN1Plus v1.30,2013-03-06 06:55:00,
2013-03-06 02:00:00,33.3,30.4,29.83,ESE,102,0.0,7.3,89,0.00,,,0.00,WX3IN1Plus v1.30,2013-03-06 07:00:00,
2013-03-06 02:05:00,33.4,30.6,29.82,East,98,4.1,6.2,90,0.00,,,0.00,WX3IN1Plus v1.30,2013-03-06 07:05:00,
2013-03-06 02:10:00,33.1,31.0,29.82,East,85,1.2,8.8,91,0.00,,,0.00,WX3IN1Plus v1.30,2013-03-06 07:10:00,
2013-03-06 02:15:00,33.1,31.0,29.82,ENE,57,0.0,7.4,91,0.00,,,0.00,WX3IN1Plus v1.30,2013-03-06 07:15:00,
2013-03-06 02:20:00,33.3,31.1,29.82,ENE,71,6.5,7.0,91,0.00,,,0.00,WX3IN1Plus v1.30,2013-03-06 07:20:00,
2013-03-06 02:25:00,33.3,31.1,29.81,NE,47,2.4,6.7,91,0.00,,,0.00,WX3IN1Plus v1.30,2013-03-06 07:25:00,
2013-03-06 02:30:00,33.2,31.1,29.81,East,95,1.1,7.7,92,0.00,,,0.00,WX3IN1Plus v1.30,2013-03-06 07:30:00,
2013-03-06 02:35:00,33.3,31.3,29.80,East,81,0.0,7.3,92,0.00,,,0.00,WX3IN1Plus v1.30,2013-03-06 07:35:00,
2013-03-06 02:40:00,33.2,31.1,29.80,East,91,5.0,8.2,92,0.00,,,0.00,WX3IN1Plus v1.30,2013-03-06 07:40:00,
2013-03-06 02:45:00,33.2,31.1,29.80,SE,136,0.0,9.3,92,0.00,,,0.00,WX3IN1Plus v1.30,2013-03-06 07:45:00,
2013-03-06 02:50:00,33.2,31.1,29.79,ENE,64,0.0,5.3,92,0.00,,,0.00,WX3IN1Plus v1.30,2013-03-06 07:50:00,
2013-03-06 02:55:00,33.2,31.3,29.79,ENE,74,1.3,6.4,93,0.00,,,0.00,WX3IN1Plus v1.30,2013-03-06 07:55:00,
2013-03-06 03:00:00,33.2,31.3,29.79,SSE,167,2.9,9.5,93,0.00,,,0.00,WX3IN1Plus v1.30,2013-03-06 08:00:00,
2013-03-06 03:05:00,33.3,31.7,29.79,NE,43,3.5,10.1,93,0.00,,,0.00,WX3IN1Plus v1.30,2013-03-06 08:05:00,
2013-03-06 03:10:00,33.5,31.7,29.79,ESE,115,0.0,7.0,93,0.00,,,0.00,WX3IN1Plus v1.30,2013-03-06 08:10:00,
2013-03-06 03:15:00,33.4,31.7,29.79,South,184,2.6,7.8,93,0.00,,,0.00,WX3IN1Plus v1.30,2013-03-06 08:15:00,
2013-03-06 03:20:00,33.4,31.7,29.79,ENE,63,1.0,7.7,93,0.00,,,0.00,WX3IN1Plus v1.30,2013-03-06 08:20:00,
2013-03-06 03:25:00,33.4,31.7,29.79,NNE,18,0.4,9.5,93,0.00,,,0.00,WX3IN1Plus v1.30,2013-03-06 08:25:00,
2013-03-06 03:30:00,33.3,31.7,29.78,East,97,4.3,7.6,93,0.00,,,0.00,WX3IN1Plus v1.30,2013-03-06 08:30:00,
2013-03-06 03:35:00,33.2,31.3,29.77,ESE,108,1.7,10.5,93,0.00,,,0.00,WX3IN1Plus v1.30,2013-03-06 08:35:00,
2013-03-06 03:40:00,33.4,31.9,29.76,ENE,74,1.1,10.0,94,0.00,,,0.00,WX3IN1Plus v1.30,2013-03-06 08:40:00,
2013-03-06 03:45:00,33.2,31.7,29.76,East,94,4.1,9.6,94,0.00,,,0.00,WX3IN1Plus v1.30,2013-03-06 08:45:00,
2013-03-06 03:50:00,33.3,31.9,29.75,East,94,2.8,11.2,94,0.00,,,0.00,WX3IN1Plus v1.30,2013-03-06 08:50:00,
2013-03-06 03:55:00,33.4,31.9,29.75,SE,125,1.0,9.6,94,0.00,,,0.00,WX3IN1Plus v1.30,2013-03-06 08:55:00,
2013-03-06 04:00:00,33.5,31.9,29.74,ENE,74,8.2,11.6,94,0.02,,,0.02,WX3IN1Plus v1.30,2013-03-06 09:00:00,
2013-03-06 04:05:00,33.5,32.0,29.74,ENE,75,11.0,16.1,95,0.03,,,0.03,WX3IN1Plus v1.30,2013-03-06 09:05:00,
2013-03-06 04:10:00,33.7,32.1,29.74,ENE,77,4.9,15.9,95,0.03,,,0.03,WX3IN1Plus v1.30,2013-03-06 09:10:00,
2013-03-06 04:16:00,33.8,32.3,29.74,ENE,73,6.4,11.4,95,0.04,,,0.04,WX3IN1Plus v1.30,2013-03-06 09:16:00,
2013-03-06 04:21:00,33.6,32.0,29.74,NE,45,1.2,10.6,95,0.05,,,0.05,WX3IN1Plus v1.30,2013-03-06 09:21:00,
2013-03-06 04:26:00,33.8,32.3,29.74,ENE,60,2.6,12.1,95,0.05,,,0.05,WX3IN1Plus v1.30,2013-03-06 09:26:00,
2013-03-06 04:31:00,33.8,32.3,29.74,ENE,68,5.5,12.4,95,0.06,,,0.06,WX3IN1Plus v1.30,2013-03-06 09:31:00,
2013-03-06 04:36:00,33.9,32.3,29.74,NNE,18,5.8,13.6,95,0.06,,,0.06,WX3IN1Plus v1.30,2013-03-06 09:36:00,
2013-03-06 04:41:00,33.9,32.3,29.74,ESE,111,1.7,13.8,95,0.07,,,0.07,WX3IN1Plus v1.30,2013-03-06 09:41:00,
2013-03-06 04:46:00,34.0,32.3,29.74,ENE,66,8.2,14.6,95,0.07,,,0.07,WX3IN1Plus v1.30,2013-03-06 09:46:00,
2013-03-06 04:51:00,34.0,32.3,29.74,ENE,61,4.4,13.5,95,0.08,,,0.08,WX3IN1Plus v1.30,2013-03-06 09:51:00,
2013-03-06 04:56:00,33.9,32.3,29.74,SSE,167,0.9,10.5,95,0.07,,,0.08,WX3IN1Plus v1.30,2013-03-06 09:56:00,
2013-03-06 05:01:00,33.9,32.3,29.73,ENE,68,1.1,11.4,95,0.07,,,0.09,WX3IN1Plus v1.30,2013-03-06 10:01:00,
2013-03-06 05:06:00,33.9,32.3,29.74,ESE,109,4.5,13.2,95,0.07,,,0.10,WX3IN1Plus v1.30,2013-03-06 10:06:00,
2013-03-06 05:11:00,34.1,32.3,29.74,NE,43,4.7,11.4,95,0.08,,,0.11,WX3IN1Plus v1.30,2013-03-06 10:11:00,
2013-03-06 05:16:00,34.1,32.3,29.73,NE,40,14.4,14.4,95,0.08,,,0.12,WX3IN1Plus v1.30,2013-03-06 10:16:00,
2013-03-06 05:21:00,34.2,32.7,29.73,ENE,59,3.4,17.5,95,0.08,,,0.13,WX3IN1Plus v1.30,2013-03-06 10:21:00,
2013-03-06 05:26:00,34.2,32.7,29.73,ESE,112,12.3,16.9,95,0.09,,,0.14,WX3IN1Plus v1.30,2013-03-06 10:26:00,
2013-03-06 05:31:00,34.3,32.7,29.72,ENE,78,3.7,12.3,95,0.09,,,0.15,WX3IN1Plus v1.30,2013-03-06 10:31:00,
2013-03-06 05:36:00,34.2,32.7,29.72,NNE,28,6.0,14.6,95,0.09,,,0.16,WX3IN1Plus v1.30,2013-03-06 10:36:00,
2013-03-06 05:41:00,34.4,32.9,29.72,East,81,3.2,21.2,95,0.10,,,0.17,WX3IN1Plus v1.30,2013-03-06 10:41:00,
2013-03-06 05:46:00,34.3,32.7,29.73,ENE,63,3.3,13.9,95,0.10,,,0.17,WX3IN1Plus v1.30,2013-03-06 10:46:00,
2013-03-06 05:51:00,34.4,32.9,29.73,ENE,77,6.8,14.9,95,0.10,,,0.18,WX3IN1Plus v1.30,2013-03-06 10:51:00,
2013-03-06 05:56:00,34.4,32.9,29.73,East,85,5.2,15.4,95,0.11,,,0.19,WX3IN1Plus v1.30,2013-03-06 10:56:00,
2013-03-06 06:01:00,34.5,32.9,29.73,NE,50,9.8,13.6,95,0.11,,,0.20,WX3IN1Plus v1.30,2013-03-06 11:01:00,
2013-03-06 06:06:00,34.4,32.9,29.72,East,84,5.9,13.6,95,0.11,,,0.21,WX3IN1Plus v1.30,2013-03-06 11:06:00,
2013-03-06 06:11:00,34.2,32.7,29.72,ENE,59,8.4,16.7,95,0.11,,,0.22,WX3IN1Plus v1.30,2013-03-06 11:11:00,
2013-03-06 06:16:00,34.2,32.7,29.72,East,91,9.7,20.8,95,0.10,,,0.22,WX3IN1Plus v1.30,2013-03-06 11:16:00,
2013-03-06 06:21:00,34.3,32.7,29.71,East,94,4.6,15.0,95,0.10,,,0.23,WX3IN1Plus v1.30,2013-03-06 11:21:00,
2013-03-06 06:26:00,34.3,32.7,29.71,East,98,3.4,13.4,95,0.10,,,0.24,WX3IN1Plus v1.30,2013-03-06 11:26:00,
2013-03-06 06:31:00,34.4,32.9,29.71,ESE,116,6.4,18.8,95,0.10,,,0.25,WX3IN1Plus v1.30,2013-03-06 11:31:00,
2013-03-06 06:36:00,34.6,33.0,29.71,SE,146,8.4,18.8,95,0.10,,,0.26,WX3IN1Plus v1.30,2013-03-06 11:36:00,
2013-03-06 06:41:00,34.7,33.0,29.71,ENE,77,8.6,15.4,95,0.10,,,0.27,WX3IN1Plus v1.30,2013-03-06 11:41:00,
2013-03-06 06:46:00,34.9,33.4,29.71,North,9,13.2,14.3,95,0.11,,,0.28,WX3IN1Plus v1.30,2013-03-06 11:46:00,
2013-03-06 06:51:00,34.8,33.0,29.70,ENE,59,6.9,17.0,95,0.11,,,0.29,WX3IN1Plus v1.30,2013-03-06 11:51:00,
2013-03-06 06:56:00,34.9,33.4,29.70,SSW,213,2.9,13.8,95,0.11,,,0.30,WX3IN1Plus v1.30,2013-03-06 11:56:00,
2013-03-06 07:01:00,34.8,33.0,29.70,East,99,7.0,13.6,95,0.11,,,0.31,WX3IN1Plus v1.30,2013-03-06 12:01:00,
2013-03-06 07:06:00,35.0,33.4,29.70,ENE,75,5.9,20.5,95,0.11,,,0.32,WX3IN1Plus v1.30,2013-03-06 12:06:00,
2013-03-06 07:11:00,34.8,33.0,29.71,ENE,71,2.1,16.7,95,0.11,,,0.33,WX3IN1Plus v1.30,2013-03-06 12:11:00,
2013-03-06 07:16:00,35.0,33.4,29.71,East,94,2.4,16.3,95,0.12,,,0.34,WX3IN1Plus v1.30,2013-03-06 12:16:00,
2013-03-06 07:21:00,34.9,33.4,29.71,ENE,57,7.2,11.8,95,0.12,,,0.35,WX3IN1Plus v1.30,2013-03-06 12:21:00,
2013-03-06 07:26:00,34.9,33.4,29.71,East,99,5.8,15.8,95,0.12,,,0.36,WX3IN1Plus v1.30,2013-03-06 12:26:00,
2013-03-06 07:31:00,34.8,33.0,29.71,North,2,3.1,11.4,95,0.12,,,0.37,WX3IN1Plus v1.30,2013-03-06 12:31:00,
2013-03-06 07:36:00,34.7,33.0,29.71,NE,50,9.6,16.6,95,0.12,,,0.38,WX3IN1Plus v1.30,2013-03-06 12:36:00,
2013-03-06 07:41:00,34.8,33.0,29.71,East,98,6.4,12.7,95,0.12,,,0.39,WX3IN1Plus v1.30,2013-03-06 12:41:00,
2013-03-06 07:46:00,34.8,31.9,29.70,NE,49,9.9,16.1,90,0.12,,,0.40,WX3IN1Plus v1.30,2013-03-06 12:46:00,
2013-03-06 07:51:00,34.9,32.7,29.70,NE,36,8.1,17.0,92,0.12,,,0.41,WX3IN1Plus v1.30,2013-03-06 12:51:00,
2013-03-06 07:56:00,35.2,32.9,29.71,ESE,122,7.7,19.0,92,0.11,,,0.41,WX3IN1Plus v1.30,2013-03-06 12:56:00,
2013-03-06 08:01:00,35.3,32.7,29.70,NNE,14,13.3,18.1,91,0.11,,,0.42,WX3IN1Plus v1.30,2013-03-06 13:01:00,
2013-03-06 08:06:00,35.6,33.0,29.71,East,98,8.1,19.0,91,0.11,,,0.43,WX3IN1Plus v1.30,2013-03-06 13:06:00,
2013-03-06 08:11:00,35.8,33.4,29.71,East,88,7.2,17.2,91,0.11,,,0.44,WX3IN1Plus v1.30,2013-03-06 13:11:00,
2013-03-06 08:16:00,35.7,34.1,29.71,NE,36,9.6,15.1,95,0.11,,,0.45,WX3IN1Plus v1.30,2013-03-06 13:16:00,
2013-03-06 08:21:00,35.8,34.3,29.71,NE,39,12.7,21.3,95,0.11,,,0.46,WX3IN1Plus v1.30,2013-03-06 13:21:00,
2013-03-06 08:26:00,35.9,34.3,29.71,NE,35,8.7,24.3,95,0.12,,,0.48,WX3IN1Plus v1.30,2013-03-06 13:26:00,
2013-03-06 08:31:00,36.1,34.1,29.71,SE,146,5.6,19.0,94,0.14,,,0.51,WX3IN1Plus v1.30,2013-03-06 13:31:00,
2013-03-06 08:36:00,36.0,34.1,29.71,ENE,67,6.5,19.2,94,0.15,,,0.53,WX3IN1Plus v1.30,2013-03-06 13:36:00,
2013-03-06 08:41:00,36.1,34.1,29.70,NE,43,9.0,18.3,94,0.15,,,0.54,WX3IN1Plus v1.30,2013-03-06 13:41:00,
2013-03-06 08:46:00,36.1,34.1,29.70,East,80,9.8,18.3,94,0.15,,,0.55,WX3IN1Plus v1.30,2013-03-06 13:46:00,
2013-03-06 08:51:00,36.2,34.7,29.69,East,80,7.3,21.5,95,0.15,,,0.56,WX3IN1Plus v1.30,2013-03-06 13:51:00,
2013-03-06 08:56:00,36.4,34.7,29.69,North,8,7.0,20.4,94,0.15,,,0.56,WX3IN1Plus v1.30,2013-03-06 13:56:00,
2013-03-06 09:01:00,36.8,34.8,29.69,ENE,77,4.7,16.7,94,0.15,,,0.57,WX3IN1Plus v1.30,2013-03-06 14:01:00,
2013-03-06 09:06:00,36.8,34.8,29.69,ENE,75,7.4,19.5,94,0.15,,,0.58,WX3IN1Plus v1.30,2013-03-06 14:06:00,
2013-03-06 09:11:00,36.8,34.8,29.68,North,358,7.3,17.7,94,0.15,,,0.59,WX3IN1Plus v1.30,2013-03-06 14:11:00,
2013-03-06 09:16:00,37.1,35.4,29.68,ESE,102,10.8,23.1,94,0.15,,,0.60,WX3IN1Plus v1.30,2013-03-06 14:16:00,
2013-03-06 09:21:00,37.0,35.2,29.68,East,95,9.0,21.1,94,0.14,,,0.61,WX3IN1Plus v1.30,2013-03-06 14:21:00,
2013-03-06 09:26:00,37.0,35.2,29.68,East,101,8.2,18.6,94,0.13,,,0.62,WX3IN1Plus v1.30,2013-03-06 14:26:00,
2013-03-06 09:31:00,37.2,35.4,29.68,East,81,8.3,19.7,94,0.12,,,0.63,WX3IN1Plus v1.30,2013-03-06 14:31:00,
2013-03-06 09:36:00,37.3,35.4,29.68,NE,35,9.6,20.8,94,0.11,,,0.64,WX3IN1Plus v1.30,2013-03-06 14:36:00,
2013-03-06 09:41:00,37.2,35.4,29.68,East,91,9.6,20.5,94,0.12,,,0.66,WX3IN1Plus v1.30,2013-03-06 14:41:00,
2013-03-06 09:46:00,37.3,35.4,29.68,ENE,57,5.5,14.1,94,0.12,,,0.67,WX3IN1Plus v1.30,2013-03-06 14:46:00,
2013-03-06 09:51:00,37.2,35.4,29.68,NE,56,7.7,21.5,94,0.12,,,0.68,WX3IN1Plus v1.30,2013-03-06 14:51:00,
2013-03-06 09:56:00,37.3,35.2,29.68,East,98,8.8,22.0,93,0.13,,,0.69,WX3IN1Plus v1.30,2013-03-06 14:56:00,
2013-03-06 10:01:00,37.3,35.2,29.68,NE,40,12.9,32.6,93,0.13,,,0.70,WX3IN1Plus v1.30,2013-03-06 15:01:00,
2013-03-06 10:06:00,37.4,35.4,29.68,East,82,13.4,20.2,93,0.14,,,0.72,WX3IN1Plus v1.30,2013-03-06 15:06:00,
2013-03-06 10:11:00,37.3,35.2,29.68,NNE,14,9.0,21.6,93,0.14,,,0.73,WX3IN1Plus v1.30,2013-03-06 15:11:00,
2013-03-06 10:16:00,37.3,35.2,29.68,NE,50,11.3,19.7,93,0.14,,,0.74,WX3IN1Plus v1.30,2013-03-06 15:16:00,
2013-03-06 10:21:00,37.4,35.4,29.68,ENE,75,10.5,24.7,93,0.14,,,0.75,WX3IN1Plus v1.30,2013-03-06 15:21:00,
2013-03-06 10:26:00,37.2,35.2,29.68,NNE,28,7.8,19.4,93,0.14,,,0.76,WX3IN1Plus v1.30,2013-03-06 15:26:00,
2013-03-06 10:31:00,37.2,35.2,29.68,NE,54,5.9,17.6,93,0.14,,,0.77,WX3IN1Plus v1.30,2013-03-06 15:31:00,
2013-03-06 10:36:00,37.2,35.2,29.68,East,82,12.3,27.0,93,0.13,,,0.77,WX3IN1Plus v1.30,2013-03-06 15:36:00,
2013-03-06 10:41:00,37.4,35.4,29.68,NE,45,10.1,24.3,93,0.12,,,0.78,WX3IN1Plus v1.30,2013-03-06 15:41:00,
2013-03-06 10:46:00,37.0,34.8,29.68,ESE,108,11.7,22.8,93,0.12,,,0.79,WX3IN1Plus v1.30,2013-03-06 15:46:00,
2013-03-06 10:51:00,37.1,33.9,29.68,ENE,57,11.6,21.8,89,0.11,,,0.79,WX3IN1Plus v1.30,2013-03-06 15:51:00,
2013-03-06 10:56:00,37.1,33.9,29.68,NE,39,11.6,22.3,89,0.10,,,0.79,WX3IN1Plus v1.30,2013-03-06 15:56:00,
2013-03-06 11:01:00,37.2,35.2,29.68,NNE,26,9.0,28.0,93,0.08,,,0.79,WX3IN1Plus v1.30,2013-03-06 16:01:00,
2013-03-06 11:06:00,37.3,35.2,29.69,ENE,71,9.5,17.1,93,0.08,,,0.80,WX3IN1Plus v1.30,2013-03-06 16:06:00,
2013-03-06 11:11:00,37.2,35.2,29.69,NE,39,10.2,26.8,93,0.08,,,0.81,WX3IN1Plus v1.30,2013-03-06 16:11:00,
2013-03-06 11:16:00,36.9,34.8,29.69,NNE,21,19.6,23.7,93,0.07,,,0.81,WX3IN1Plus v1.30,2013-03-06 16:16:00,
2013-03-06 11:21:00,36.9,34.8,29.69,NNE,29,12.4,25.6,93,0.07,,,0.82,WX3IN1Plus v1.30,2013-03-06 16:21:00,
2013-03-06 11:26:00,37.0,34.8,29.69,NE,36,12.2,23.5,93,0.06,,,0.82,WX3IN1Plus v1.30,2013-03-06 16:26:00,
2013-03-06 11:31:00,36.8,34.7,29.69,ENE,73,7.8,24.4,93,0.06,,,0.83,WX3IN1Plus v1.30,2013-03-06 16:31:00,
2013-03-06 11:36:00,36.9,34.8,29.69,NNE,25,10.1,22.1,93,0.06,,,0.84,WX3IN1Plus v1.30,2013-03-06 16:36:00,
2013-03-06 11:41:00,36.6,34.3,29.69,NE,37,14.9,21.3,93,0.06,,,0.84,WX3IN1Plus v1.30,2013-03-06 16:41:00,
2013-03-06 11:46:00,36.8,34.7,29.69,East,97,12.0,18.5,93,0.06,,,0.85,WX3IN1Plus v1.30,2013-03-06 16:46:00,
2013-03-06 11:51:00,36.4,34.3,29.70,NNE,29,6.2,28.0,93,0.07,,,0.86,WX3IN1Plus v1.30,2013-03-06 16:51:00,
2013-03-06 11:56:00,36.7,34.8,29.70,East,81,8.5,16.6,94,0.07,,,0.86,WX3IN1Plus v1.30,2013-03-06 16:56:00,
2013-03-06 12:01:00,36.5,34.3,29.69,East,80,13.8,32.0,93,0.08,,,0.87,WX3IN1Plus v1.30,2013-03-06 17:01:00,
2013-03-06 12:06:00,36.5,34.3,29.69,NE,37,9.8,22.6,93,0.07,,,0.87,WX3IN1Plus v1.30,2013-03-06 17:06:00,
2013-03-06 12:11:00,36.3,34.1,29.69,North,5,14.1,26.1,93,0.06,,,0.87,WX3IN1Plus v1.30,2013-03-06 17:11:00,
2013-03-06 12:16:00,36.3,34.1,29.69,ENE,67,12.9,23.0,93,0.07,,,0.88,WX3IN1Plus v1.30,2013-03-06 17:16:00,
2013-03-06 12:21:00,36.4,34.3,29.69,NE,56,14.5,18.1,93,0.06,,,0.88,WX3IN1Plus v1.30,2013-03-06 17:21:00,
2013-03-06 12:26:00,36.3,34.1,29.69,ENE,63,8.0,18.8,93,0.06,,,0.88,WX3IN1Plus v1.30,2013-03-06 17:26:00,
2013-03-06 12:31:00,36.5,34.3,29.70,North,354,5.5,19.3,93,0.05,,,0.88,WX3IN1Plus v1.30,2013-03-06 17:31:00,
2013-03-06 12:36:00,36.6,34.3,29.70,East,97,12.1,20.7,93,0.05,,,0.89,WX3IN1Plus v1.30,2013-03-06 17:36:00,
2013-03-06 12:41:00,36.7,34.7,29.70,NE,47,10.4,21.1,93,0.05,,,0.89,WX3IN1Plus v1.30,2013-03-06 17:41:00,
2013-03-06 12:46:00,36.8,34.7,29.70,NE,49,9.1,27.9,93,0.04,,,0.89,WX3IN1Plus v1.30,2013-03-06 17:46:00,
2013-03-06 12:51:00,36.8,34.7,29.70,NNE,16,21.9,25.1,93,0.03,,,0.89,WX3IN1Plus v1.30,2013-03-06 17:51:00,
2013-03-06 12:56:00,37.1,34.8,29.69,East,87,10.6,24.7,92,0.04,,,0.90,WX3IN1Plus v1.30,2013-03-06 17:56:00,
2013-03-06 13:01:00,37.0,33.4,29.69,ENE,66,6.5,30.6,88,0.03,,,0.90,WX3IN1Plus v1.30,2013-03-06 18:01:00,
2013-03-06 13:06:00,37.2,34.8,29.70,ENE,63,11.6,21.4,92,0.03,,,0.90,WX3IN1Plus v1.30,2013-03-06 18:06:00,
2013-03-06 13:12:00,37.2,34.7,29.70,NNE,22,10.2,22.9,91,0.02,,,0.90,WX3IN1Plus v1.30,2013-03-06 18:12:00,
2013-03-06 13:17:00,37.3,34.7,29.70,NE,37,18.1,29.3,91,0.03,,,0.91,WX3IN1Plus v1.30,2013-03-06 18:17:00,
2013-03-06 13:22:00,37.5,34.8,29.70,ENE,74,13.3,24.1,91,0.03,,,0.91,WX3IN1Plus v1.30,2013-03-06 18:22:00,
2013-03-06 13:27:00,37.6,35.2,29.70,North,352,10.6,22.0,91,0.03,,,0.91,WX3IN1Plus v1.30,2013-03-06 18:27:00,
2013-03-06 13:32:00,37.4,34.8,29.71,NE,40,13.9,22.7,91,0.03,,,0.91,WX3IN1Plus v1.30,2013-03-06 18:32:00,
2013-03-06 13:37:00,37.4,34.8,29.71,NNE,14,7.0,21.4,91,0.03,,,0.92,WX3IN1Plus v1.30,2013-03-06 18:37:00,
2013-03-06 13:42:00,37.3,34.7,29.71,NE,54,9.0,26.3,91,0.03,,,0.92,WX3IN1Plus v1.30,2013-03-06 18:42:00,
2013-03-06 13:47:00,37.3,33.4,29.71,NE,35,14.4,29.2,87,0.03,,,0.92,WX3IN1Plus v1.30,2013-03-06 18:47:00,
2013-03-06 13:52:00,37.6,34.1,29.71,NNE,32,12.2,23.1,88,0.03,,,0.92,WX3IN1Plus v1.30,2013-03-06 18:52:00,
2013-03-06 13:57:00,37.3,33.6,29.71,ENE,64,19.6,24.1,88,0.02,,,0.92,WX3IN1Plus v1.30,2013-03-06 18:57:00,
2013-03-06 14:02:00,37.7,34.1,29.71,ENE,61,7.7,25.2,88,0.02,,,0.92,WX3IN1Plus v1.30,2013-03-06 19:02:00,
2013-03-06 14:07:00,37.6,34.7,29.72,North,9,14.3,28.8,90,0.03,,,0.93,WX3IN1Plus v1.30,2013-03-06 19:07:00,
2013-03-06 14:12:00,37.9,34.7,29.72,NE,47,11.6,20.3,90,0.02,,,0.93,WX3IN1Plus v1.30,2013-03-06 19:12:00,
2013-03-06 14:17:00,37.7,33.6,29.72,East,91,8.6,25.4,86,0.02,,,0.93,WX3IN1Plus v1.30,2013-03-06 19:17:00,
2013-03-06 14:22:00,37.7,33.6,29.73,NE,40,12.9,34.1,86,0.02,,,0.93,WX3IN1Plus v1.30,2013-03-06 19:22:00,
2013-03-06 14:27:00,37.7,34.3,29.73,NNE,26,10.1,22.4,89,0.02,,,0.93,WX3IN1Plus v1.30,2013-03-06 19:27:00,
2013-03-06 14:32:00,37.8,33.6,29.74,NNW,334,15.1,21.1,86,0.02,,,0.93,WX3IN1Plus v1.30,2013-03-06 19:32:00,
2013-03-06 14:37:00,37.7,33.6,29.74,ENE,78,16.7,27.5,86,0.02,,,0.94,WX3IN1Plus v1.30,2013-03-06 19:37:00,
2013-03-06 14:42:00,37.8,33.9,29.74,North,0,5.9,20.6,87,0.02,,,0.94,WX3IN1Plus v1.30,2013-03-06 19:42:00,
2013-03-06 14:47:00,37.7,33.9,29.75,NNW,340,15.9,30.9,87,0.02,,,0.94,WX3IN1Plus v1.30,2013-03-06 19:47:00,
2013-03-06 14:52:00,37.7,33.6,29.75,NE,37,11.1,22.9,86,0.02,,,0.94,WX3IN1Plus v1.30,2013-03-06 19:52:00,
2013-03-06 14:57:00,37.7,33.9,29.76,NE,40,11.6,30.7,87,0.02,,,0.94,WX3IN1Plus v1.30,2013-03-06 19:57:00,
2013-03-06 15:02:00,37.5,33.6,29.76,NE,54,11.0,21.0,87,0.02,,,0.94,WX3IN1Plus v1.30,2013-03-06 20:02:00,
2013-03-06 15:07:00,37.5,33.9,29.76,NE,49,10.2,17.9,88,0.02,,,0.95,WX3IN1Plus v1.30,2013-03-06 20:07:00,
2013-03-06 15:12:00,37.3,34.1,29.77,NNE,14,11.7,22.1,90,0.02,,,0.95,WX3IN1Plus v1.30,2013-03-06 20:12:00,
2013-03-06 15:17:00,37.2,34.7,29.77,NE,43,16.0,27.5,91,0.02,,,0.95,WX3IN1Plus v1.30,2013-03-06 20:17:00,
2013-03-06 15:22:00,37.1,34.7,29.78,ESE,115,7.0,27.2,91,0.02,,,0.95,WX3IN1Plus v1.30,2013-03-06 20:22:00,
2013-03-06 15:27:00,36.9,34.3,29.78,NE,43,12.1,21.9,91,0.02,,,0.95,WX3IN1Plus v1.30,2013-03-06 20:27:00,
2013-03-06 15:32:00,36.9,34.3,29.79,NNE,21,8.5,23.6,91,0.02,,,0.95,WX3IN1Plus v1.30,2013-03-06 20:32:00,
2013-03-06 15:37:00,37.1,34.7,29.79,NE,52,15.4,27.8,91,0.01,,,0.95,WX3IN1Plus v1.30,2013-03-06 20:37:00,
2013-03-06 15:42:00,37.2,34.7,29.79,NNE,14,11.5,20.7,91,0.02,,,0.96,WX3IN1Plus v1.30,2013-03-06 20:42:00,
2013-03-06 15:47:00,36.9,34.3,29.80,NE,54,10.5,19.3,91,0.02,,,0.96,WX3IN1Plus v1.30,2013-03-06 20:47:00,
2013-03-06 15:52:00,37.1,34.7,29.80,NE,54,11.0,22.6,91,0.02,,,0.96,WX3IN1Plus v1.30,2013-03-06 20:52:00,
2013-03-06 15:57:00,37.2,34.7,29.81,ENE,73,7.7,22.4,91,0.02,,,0.96,WX3IN1Plus v1.30,2013-03-06 20:57:00,
2013-03-06 16:02:00,37.2,34.7,29.81,NNE,33,8.1,21.1,91,0.02,,,0.96,WX3IN1Plus v1.30,2013-03-06 21:02:00,
2013-03-06 16:07:00,37.2,34.7,29.81,NNE,23,12.1,22.8,91,0.01,,,0.96,WX3IN1Plus v1.30,2013-03-06 21:07:00,
2013-03-06 16:12:00,37.1,34.7,29.81,NNE,26,8.1,22.0,91,0.01,,,0.96,WX3IN1Plus v1.30,2013-03-06 21:12:00,
2013-03-06 16:17:00,37.3,34.7,29.82,NE,35,16.4,22.4,91,0.01,,,0.96,WX3IN1Plus v1.30,2013-03-06 21:17:00,
2013-03-06 16:22:00,37.3,34.7,29.83,NE,46,6.7,19.6,91,0.01,,,0.96,WX3IN1Plus v1.30,2013-03-06 21:22:00,
2013-03-06 16:27:00,37.6,35.2,29.83,NNE,15,18.7,18.7,91,0.01,,,0.96,WX3IN1Plus v1.30,2013-03-06 21:27:00,
2013-03-06 16:32:00,37.6,35.2,29.83,NE,56,4.8,25.1,91,0.01,,,0.96,WX3IN1Plus v1.30,2013-03-06 21:32:00,
2013-03-06 16:37:00,37.6,35.2,29.84,NNE,25,13.0,16.9,91,0.02,,,0.97,WX3IN1Plus v1.30,2013-03-06 21:37:00,
2013-03-06 16:42:00,37.7,35.2,29.84,NNE,32,10.8,20.0,91,0.01,,,0.97,WX3IN1Plus v1.30,2013-03-06 21:42:00,
2013-03-06 16:47:00,37.8,35.2,29.84,NE,45,7.9,18.2,91,0.01,,,0.97,WX3IN1Plus v1.30,2013-03-06 21:47:00,
2013-03-06 16:52:00,37.7,34.7,29.85,North,358,7.4,21.8,90,0.01,,,0.97,WX3IN1Plus v1.30,2013-03-06 21:52:00,
2013-03-06 16:57:00,37.6,34.7,29.85,ENE,60,11.1,28.8,90,0.01,,,0.97,WX3IN1Plus v1.30,2013-03-06 21:57:00,
2013-03-06 17:02:00,37.9,34.7,29.86,ENE,78,6.3,22.2,90,0.01,,,0.97,WX3IN1Plus v1.30,2013-03-06 22:02:00,
2013-03-06 17:07:00,37.8,34.7,29.86,NNW,347,4.6,20.6,90,0.01,,,0.97,WX3IN1Plus v1.30,2013-03-06 22:07:00,
2013-03-06 17:12:00,38.1,34.8,29.87,ENE,60,10.8,20.3,90,0.02,,,0.98,WX3IN1Plus v1.30,2013-03-06 22:12:00,
2013-03-06 17:17:00,37.9,34.7,29.87,North,4,10.5,23.8,90,0.02,,,0.98,WX3IN1Plus v1.30,2013-03-06 22:17:00,
2013-03-06 17:22:00,38.1,34.8,29.87,ENE,64,8.0,22.6,90,0.02,,,0.98,WX3IN1Plus v1.30,2013-03-06 22:22:00,
2013-03-06 17:27:00,38.2,35.2,29.87,NNE,19,12.3,19.0,90,0.02,,,0.98,WX3IN1Plus v1.30,2013-03-06 22:27:00,
2013-03-06 17:32:00,38.1,34.8,29.88,North,357,8.8,15.5,90,0.03,,,0.99,WX3IN1Plus v1.30,2013-03-06 22:32:00,
2013-03-06 17:37:00,37.9,34.3,29.88,NNE,25,11.5,21.4,89,0.02,,,0.99,WX3IN1Plus v1.30,2013-03-06 22:37:00,
2013-03-06 17:42:00,38.2,34.8,29.89,NNE,23,11.5,25.1,89,0.02,,,0.99,WX3IN1Plus v1.30,2013-03-06 22:42:00,
2013-03-06 17:47:00,38.3,35.2,29.89,NE,47,11.2,20.5,89,0.02,,,0.99,WX3IN1Plus v1.30,2013-03-06 22:47:00,
2013-03-06 17:52:00,38.3,35.2,29.89,NNE,33,9.7,16.7,89,0.02,,,0.99,WX3IN1Plus v1.30,2013-03-06 22:52:00,
2013-03-06 17:57:00,38.7,35.4,29.89,NE,40,5.5,18.7,89,0.02,,,0.99,WX3IN1Plus v1.30,2013-03-06 22:57:00,
2013-03-06 18:02:00,38.5,34.8,29.90,NNE,30,8.2,21.9,88,0.02,,,0.99,WX3IN1Plus v1.30,2013-03-06 23:02:00,
2013-03-06 18:07:00,38.5,34.8,29.91,ESE,109,7.8,19.3,88,0.02,,,0.99,WX3IN1Plus v1.30,2013-03-06 23:07:00,
2013-03-06 18:12:00,38.6,34.7,29.91,NE,43,9.7,16.4,87,0.01,,,0.99,WX3IN1Plus v1.30,2013-03-06 23:12:00,
2013-03-06 18:17:00,38.5,34.7,29.92,NE,40,12.9,21.9,87,0.01,,,0.99,WX3IN1Plus v1.30,2013-03-06 23:17:00,
2013-03-06 18:22:00,38.8,34.7,29.92,North,7,10.6,24.1,86,0.01,,,0.99,WX3IN1Plus v1.30,2013-03-06 23:22:00,
2013-03-06 18:27:00,38.8,34.7,29.92,NE,37,7.5,21.5,86,0.01,,,0.99,WX3IN1Plus v1.30,2013-03-06 23:27:00,
2013-03-06 18:32:00,38.9,34.8,29.92,NE,52,7.5,20.8,86,0.00,,,0.99,WX3IN1Plus v1.30,2013-03-06 23:32:00,
2013-03-06 18:37:00,38.8,34.3,29.92,NNE,26,4.6,20.4,85,0.00,,,0.99,WX3IN1Plus v1.30,2013-03-06 23:37:00,
2013-03-06 18:42:00,39.1,34.7,29.93,ENE,57,4.9,15.5,85,0.00,,,0.99,WX3IN1Plus v1.30,2013-03-06 23:42:00,
2013-03-06 18:47:00,39.0,34.7,29.93,North,7,4.4,16.3,85,0.00,,,0.99,WX3IN1Plus v1.30,2013-03-06 23:47:00,
2013-03-06 18:52:00,39.0,34.7,29.94,NE,42,8.2,18.3,85,0.00,,,0.99,WX3IN1Plus v1.30,2013-03-06 23:52:00,
2013-03-06 18:57:00,39.2,34.8,29.95,NE,35,6.2,14.4,85,0.00,,,0.99,WX3IN1Plus v1.30,2013-03-06 23:57:00,
2013-03-06 19:02:00,39.2,34.7,29.95,NE,52,7.5,20.2,84,0.00,,,0.99,WX3IN1Plus v1.30,2013-03-07 00:02:00,
2013-03-06 19:07:00,39.1,34.3,29.95,NNE,14,8.9,21.3,84,0.00,,,0.99,WX3IN1Plus v1.30,2013-03-07 00:07:00,
2013-03-06 19:12:00,39.0,34.3,29.96,North,11,14.7,26.8,84,0.00,,,0.99,WX3IN1Plus v1.30,2013-03-07 00:12:00,
2013-03-06 19:17:00,38.9,34.3,29.96,NNE,12,8.5,20.6,84,0.00,,,0.99,WX3IN1Plus v1.30,2013-03-07 00:17:00,
2013-03-06 19:22:00,38.9,34.3,29.96,North,4,13.4,17.2,84,0.00,,,0.99,WX3IN1Plus v1.30,2013-03-07 00:22:00,
2013-03-06 19:27:00,39.0,34.3,29.97,NNE,28,8.3,17.2,84,0.00,,,0.99,WX3IN1Plus v1.30,2013-03-07 00:27:00,
2013-03-06 19:32:00,38.8,34.1,29.97,NE,37,6.2,14.1,84,0.00,,,0.99,WX3IN1Plus v1.30,2013-03-07 00:32:00,
2013-03-06 19:37:00,38.7,33.6,29.97,NNE,19,6.4,16.4,83,0.00,,,0.99,WX3IN1Plus v1.30,2013-03-07 00:37:00,
2013-03-06 19:42:00,38.6,33.4,29.96,NNE,28,6.6,13.7,83,0.00,,,0.99,WX3IN1Plus v1.30,2013-03-07 00:42:00,
2013-03-06 19:47:00,38.8,33.6,29.96,NE,46,8.5,18.6,83,0.00,,,0.99,WX3IN1Plus v1.30,2013-03-07 00:47:00,
2013-03-06 19:52:00,38.6,33.0,29.97,NE,54,8.6,20.0,82,0.00,,,0.99,WX3IN1Plus v1.30,2013-03-07 00:52:00,
2013-03-06 19:58:00,38.6,33.0,29.97,NE,40,7.1,14.1,82,0.00,,,0.99,WX3IN1Plus v1.30,2013-03-07 00:58:00,
2013-03-06 20:03:00,38.8,33.0,29.97,NE,54,4.4,21.9,81,0.00,,,0.99,WX3IN1Plus v1.30,2013-03-07 01:03:00,
2013-03-06 20:08:00,38.7,33.0,29.97,NE,47,6.3,15.9,81,0.00,,,0.99,WX3IN1Plus v1.30,2013-03-07 01:08:00,
2013-03-06 20:13:00,38.7,33.0,29.97,East,82,4.7,14.2,81,0.00,,,0.99,WX3IN1Plus v1.30,2013-03-07 01:13:00,
2013-03-06 20:18:00,38.7,33.0,29.97,NE,42,10.8,18.5,81,0.00,,,0.99,WX3IN1Plus v1.30,2013-03-07 01:18:00,
2013-03-06 20:23:00,38.7,32.3,29.97,East,82,6.5,20.2,79,0.00,,,0.99,WX3IN1Plus v1.30,2013-03-07 01:23:00,
2013-03-06 20:28:00,38.9,32.7,29.97,NE,43,8.5,18.4,79,0.00,,,0.99,WX3IN1Plus v1.30,2013-03-07 01:28:00,
2013-03-06 20:33:00,38.7,32.1,29.97,NE,50,9.0,20.1,78,0.00,,,0.99,WX3IN1Plus v1.30,2013-03-07 01:33:00,
2013-03-06 20:38:00,39.0,32.3,29.97,NE,56,7.2,17.7,78,0.00,,,0.99,WX3IN1Plus v1.30,2013-03-07 01:38:00,
2013-03-06 20:43:00,39.2,32.3,29.97,NNW,340,4.6,14.6,77,0.00,,,0.99,WX3IN1Plus v1.30,2013-03-07 01:43:00,
2013-03-06 20:48:00,39.1,32.1,29.97,NE,47,8.6,13.4,77,0.00,,,0.99,WX3IN1Plus v1.30,2013-03-07 01:48:00,
2013-03-06 20:53:00,39.3,32.3,29.97,ENE,66,3.8,12.6,77,0.00,,,0.99,WX3IN1Plus v1.30,2013-03-07 01:53:00,
2013-03-06 20:58:00,39.2,32.3,29.97,North,352,4.4,13.1,77,0.00,,,0.99,WX3IN1Plus v1.30,2013-03-07 01:58:00,
2013-03-06 21:03:00,39.1,32.1,29.98,NE,47,7.0,13.7,77,0.00,,,0.99,WX3IN1Plus v1.30,2013-03-07 02:03:00,
2013-03-06 21:08:00,39.2,32.3,29.98,North,358,1.6,12.8,77,0.00,,,0.99,WX3IN1Plus v1.30,2013-03-07 02:08:00,
2013-03-06 21:13:00,39.4,32.3,29.98,ENE,60,4.4,14.1,76,0.00,,,0.99,WX3IN1Plus v1.30,2013-03-07 02:13:00,
2013-03-06 21:18:00,39.5,32.3,29.98,NNE,29,6.2,14.5,76,0.00,,,0.99,WX3IN1Plus v1.30,2013-03-07 02:18:00,
2013-03-06 21:23:00,39.4,32.3,29.98,NE,52,2.9,11.9,76,0.00,,,0.99,WX3IN1Plus v1.30,2013-03-07 02:23:00,
2013-03-06 21:28:00,39.5,32.3,29.98,NW,306,1.8,10.7,76,0.00,,,0.99,WX3IN1Plus v1.30,2013-03-07 02:28:00,
2013-03-06 21:33:00,39.5,32.3,29.98,NNE,19,6.3,10.5,76,0.00,,,0.99,WX3IN1Plus v1.30,2013-03-07 02:33:00,
2013-03-06 21:38:00,39.6,32.0,29.98,NNE,18,6.3,13.7,75,0.00,,,0.99,WX3IN1Plus v1.30,2013-03-07 02:38:00,
2013-03-06 21:43:00,39.8,32.1,29.99,NNE,30,5.7,13.4,75,0.00,,,0.99,WX3IN1Plus v1.30,2013-03-07 02:43:00,
2013-03-06 21:48:00,39.8,32.1,29.99,NNE,15,5.1,13.7,75,0.00,,,0.99,WX3IN1Plus v1.30,2013-03-07 02:48:00,
2013-03-06 21:53:00,39.9,32.1,29.99,North,352,4.2,11.5,75,0.00,,,0.99,WX3IN1Plus v1.30,2013-03-07 02:53:00,
2013-03-06 21:58:00,39.8,32.0,29.99,NE,45,5.8,11.0,74,0.00,,,0.99,WX3IN1Plus v1.30,2013-03-07 02:58:00,
2013-03-06 22:03:00,39.8,31.9,29.99,NE,39,4.3,12.6,73,0.00,,,0.99,WX3IN1Plus v1.30,2013-03-07 03:03:00,
2013-03-06 22:08:00,39.9,31.9,30.00,North,1,5.7,16.2,73,0.00,,,0.99,WX3IN1Plus v1.30,2013-03-07 03:08:00,
2013-03-06 22:13:00,40.0,31.7,30.00,NNE,21,2.4,14.5,72,0.00,,,0.99,WX3IN1Plus v1.30,2013-03-07 03:13:00,
2013-03-06 22:18:00,40.1,31.9,30.00,NNE,25,11.5,14.0,72,0.00,,,0.99,WX3IN1Plus v1.30,2013-03-07 03:18:00,
2013-03-06 22:23:00,40.3,31.9,30.00,North,358,5.1,15.8,72,0.00,,,0.99,WX3IN1Plus v1.30,2013-03-07 03:23:00,
2013-03-06 22:28:00,40.3,31.1,30.00,North,5,9.5,17.0,70,0.00,,,0.99,WX3IN1Plus v1.30,2013-03-07 03:28:00,
2013-03-06 22:33:00,40.2,31.7,30.00,NNE,30,4.9,13.7,71,0.00,,,0.99,WX3IN1Plus v1.30,2013-03-07 03:33:00,
2013-03-06 22:38:00,40.2,31.0,30.01,ENE,67,7.2,18.8,69,0.00,,,0.99,WX3IN1Plus v1.30,2013-03-07 03:38:00,
2013-03-06 22:43:00,40.3,31.0,30.01,NE,53,5.2,12.6,69,0.00,,,0.99,WX3IN1Plus v1.30,2013-03-07 03:43:00,
2013-03-06 22:48:00,40.3,30.4,30.01,NE,49,6.4,12.4,68,0.00,,,0.99,WX3IN1Plus v1.30,2013-03-07 03:48:00,
2013-03-06 22:53:00,40.3,31.0,30.02,ENE,63,8.2,11.2,69,0.00,,,0.00,WX3IN1Plus v1.30,2013-03-07 03:53:00,
2013-03-06 22:58:00,40.3,31.0,30.01,ENE,68,3.7,12.6,69,0.00,,,0.00,WX3IN1Plus v1.30,2013-03-07 03:58:00,
2013-03-06 23:03:00,40.3,31.0,30.02,ENE,57,7.0,10.8,69,0.00,,,0.00,WX3IN1Plus v1.30,2013-03-07 04:03:00,
2013-03-06 23:08:00,40.1,31.1,30.02,NE,47,5.5,9.0,70,0.00,,,0.00,WX3IN1Plus v1.30,2013-03-07 04:08:00,
2013-03-06 23:13:00,40.0,31.0,30.02,NE,45,4.9,13.6,70,0.00,,,0.00,WX3IN1Plus v1.30,2013-03-07 04:13:00,
2013-03-06 23:18:00,39.8,30.6,30.02,NNE,29,3.9,10.2,70,0.00,,,0.00,WX3IN1Plus v1.30,2013-03-07 04:18:00,
2013-03-06 23:23:00,39.8,30.6,30.02,NE,35,4.5,8.5,70,0.00,,,0.00,WX3IN1Plus v1.30,2013-03-07 04:23:00,
2013-03-06 23:28:00,39.8,30.6,30.02,North,7,3.4,13.0,70,0.00,,,0.00,WX3IN1Plus v1.30,2013-03-07 04:28:00,
2013-03-06 23:33:00,39.9,30.4,30.03,North,358,7.2,11.4,69,0.00,,,0.00,WX3IN1Plus v1.30,2013-03-07 04:33:00,
2013-03-06 23:38:00,39.6,30.2,30.03,North,2,2.9,9.8,69,0.00,,,0.00,WX3IN1Plus v1.30,2013-03-07 04:38:00,
2013-03-06 23:43:00,39.8,30.4,30.03,North,0,2.7,12.1,69,0.00,,,0.00,WX3IN1Plus v1.30,2013-03-07 04:43:00,
2013-03-06 23:48:00,39.6,30.2,30.03,NE,36,6.7,11.8,69,0.00,,,0.00,WX3IN1Plus v1.30,2013-03-07 04:48:00,
2013-03-06 23:53:00,39.6,30.2,30.03,ENE,77,4.6,14.8,69,0.00,,,0.00,WX3IN1Plus v1.30,2013-03-07 04:53:00,
2013-03-06 23:58:00,39.7,29.3,30.03,NE,42,7.4,14.4,67,0.00,,,0.00,WX3IN1Plus v1.30,2013-03-07 04:58:00,